RH
97 99 99 96 97 98 100 102 102 102 101 97 94 93 94 94 94 92 88 86 84 83 82 80 79 78 75 70 63 56 51 49 51 55 61 67 67 63 59 55 55 56 58 62 67 69 68 68 79 94 102 103 101 101 104 106 107 106 103 98 89 81 77
100 100 99 98 100 102 102 104 103 97 94 95 95 95 96 95 93 87 83 80 78 78 76 74 77 78 77 73 67 60 56 55 56 58 62 68 71 70 66 61 59 60 62 65 69 72 71 69 72 79 88 97 101 103 105 105 104 103 101 93 82 76 73
102 100 100 99 99 100 98 97 96 90 88 91 93 95 95 92 87 81 78 78 78 76 73 74 79 77 75 76 73 65 59 58 60 61 62 65 69 73 72 69 65 64 65 66 69 71 73 77 79 78 79 84 91 97 103 105 103 102 101 89 74 70 71
102 101 102 99 94 93 91 89 90 89 90 91 89 90 91 89 87 87 86 83 79 75 75 80 80 72 72 78 76 66 58 56 57 60 62 63 65 70 73 74 72 69 68 69 70 70 71 78 84 85 82 79 78 81 90 101 105 102 101 96 82 75 79
101 101 102 95 87 86 86 88 91 89 87 87 84 85 91 95 97 99 97 89 82 79 82 88 81 70 72 79 76 66 57 53 50 50 53 56 60 64 68 73 75 74 74 73 75 76 75 77 81 84 84 80 79 78 80 91 104 103 99 100 95 85 83
101 101 101 97 94 94 95 98 99 92 84 80 76 77 84 90 92 91 90 87 84 85 90 91 81 71 73 79 78 71 62 57 51 47 45 44 47 52 59 66 72 75 77 77 78 81 82 81 81 83 85 86 89 90 87 89 99 104 100 99 100 95 87
101 100 99 100 100 97 94 93 93 88 81 74 67 64 67 72 75 77 77 76 75 78 86 91 87 80 76 76 78 79 75 70 64 58 52 45 40 41 46 53 60 67 72 76 78 79 82 83 84 85 87 90 93 97 97 95 97 101 102 100 98 99 97
101 100 99 100 100 96 89 84 82 81 78 73 66 61 60 60 64 68 70 70 68 66 71 78 80 77 72 68 68 70 71 69 64 58 53 50 44 38 39 42 46 52 61 69 75 79 80 81 83 85 87 91 93 97 100 99 98 98 100 102 97 96 102
100 100 100 99 99 99 97 93 90 89 87 84 82 77 73 69 67 68 71 72 70 65 61 61 60 57 55 53 51 51 53 53 51 48 46 49 48 44 42 42 42 43 46 53 62 71 78 80 81 82 84 89 92 95 98 98 99 98 98 100 100 98 99
100 100 101 100 100 100 100 100 99 98 94 90 89 86 83 83 81 79 80 80 77 73 67 61 57 53 50 49 48 46 45 44 44 43 42 44 48 48 48 47 47 45 43 43 46 53 65 76 81 81 82 84 88 92 96 97 99 100 99 99 100 101 99
99 99 100 100 101 101 101 101 100 98 96 95 94 88 84 85 85 83 85 88 88 87 85 80 74 68 63 60 57 55 52 48 47 49 50 50 50 50 51 52 52 52 50 47 45 45 50 62 75 81 81 82 85 88 92 96 98 97 98 99 99 100 101
100 100 100 100 101 102 101 101 100 99 99 101 100 95 90 87 83 80 84 92 95 95 94 92 87 83 79 75 72 69 66 61 58 59 59 58 55 53 54 56 57 58 59 58 55 52 49 51 63 76 81 81 83 86 87 92 96 95 94 95 97 98 99
102 102 100 100 101 101 101 102 102 100 99 99 100 101 97 92 87 85 89 94 96 92 87 84 82 81 81 81 80 77 74 70 66 64 62 59 55 52 53 57 59 59 61 62 63 62 58 53 55 67 76 78 78 83 86 88 90 92 93 93 94 96 97
101 101 100 100 101 100 101 104 104 102 101 99 99 100 97 94 96 97 100 101 99 97 95 91 87 83 80 81 80 78 76 73 69 66 63 60 58 56 56 58 58 55 55 59 64 68 66 61 57 63 71 73 71 74 81 88 89 90 94 95 96 96 97
102 102 101 98 98 99 98 100 102 101 101 102 101 100 98 98 99 98 98 98 97 97 99 99 99 95 91 88 86 86 84 80 77 73 70 69 68 67 64 59 55 54 54 56 60 63 64 65 70 77 83 86 84 80 81 88 94 96 96 98 100 101 102
103 104 104 99 97 95 89 89 93 94 95 97 97 98 101 102 102 100 98 97 97 97 96 97 100 101 100 96 90 86 82 78 77 76 74 74 73 69 63 58 55 54 52 51 50 52 58 65 79 93 98 99 100 96 90 90 95 100 102 104 106 107 106
100 101 105 106 103 98 92 90 91 89 88 89 89 88 90 93 97 100 101 101 102 102 98 96 97 96 95 91 86 80 76 75 75 75 73 71 67 63 60 58 56 52 48 46 43 47 58 68 79 96 105 106 107 106 103 101 99 99 105 108 108 106 103
97 100 104 105 104 102 99 96 93 88 85 84 82 79 79 81 84 88 92 94 96 97 96 96 96 94 88 83 79 77 75 74 73 71 67 63 60 60 59 56 52 48 47 46 45 50 62 69 73 83 96 103 107 108 106 107 106 105 107 106 102 104 105
92 98 105 108 106 100 91 86 85 83 82 83 82 80 80 81 82 85 89 92 94 93 94 94 94 93 89 85 82 77 73 70 68 64 60 59 59 59 57 53 49 48 48 47 48 54 63 69 70 72 80 92 101 105 106 106 106 105 106 103 98 99 104
84 88 96 104 107 104 95 89 88 87 88 90 90 92 94 95 97 99 100 101 102 100 98 99 100 99 97 93 88 80 73 68 64 60 57 57 58 59 57 53 50 50 51 50 52 58 63 65 66 65 68 78 88 97 103 106 105 103 105 107 103 99 99
82 82 85 89 93 97 98 97 95 94 92 93 97 101 104 105 108 108 106 104 103 102 102 101 100 97 93 89 84 78 72 66 62 59 57 56 56 55 55 55 55 57 59 58 57 62 65 62 61 61 64 72 82 90 95 97 96 94 95 98 99 98 97
82 81 81 79 79 82 86 90 93 95 96 99 104 105 104 104 106 105 104 103 102 103 103 100 97 93 89 86 80 75 72 69 67 65 65 64 62 60 65 68 65 63 62 61 63 67 67 62 59 58 61 70 81 86 84 77 72 68 64 62 63 68 72
79 80 80 80 80 81 83 87 91 96 100 105 107 106 103 102 102 102 102 101 100 101 102 102 100 98 97 96 93 88 83 79 77 74 74 76 76 81 89 83 71 65 63 67 75 72 60 56 59 58 56 62 71 76 74 70 65 59 51 42 37 38 42
76 77 79 81 83 86 90 94 96 99 104 106 108 108 105 102 101 100 101 100 100 101 101 101 101 100 101 102 101 101 98 94 90 85 82 83 84 92 101 92 79 78 78 84 94 83 57 47 54 58 58 60 66 68 67 66 64 59 51 40 32 30 31
78 80 82 85 87 89 92 95 98 103 106 108 110 108 104 104 104 102 101 101 101 101 100 100 101 101 102 102 101 101 100 98 97 93 90 90 88 91 99 99 92 90 89 96 106 97 70 54 52 55 56 58 61 63 62 59 54 49 46 40 34 32 31
77 80 83 87 91 93 95 97 99 104 108 110 110 106 103 104 105 104 103 103 101 100 98 97 97 98 100 102 103 103 101 98 98 98 95 95 95 94 97 101 100 95 92 94 98 96 83 67 58 56 56 55 55 56 57 54 50 47 44 39 36 35 35
73 74 78 83 88 91 94 96 99 103 107 109 109 108 106 105 104 104 105 104 101 99 96 92 90 93 97 99 101 103 103 101 101 101 99 97 98 98 97 99 100 99 98 96 95 94 89 76 64 59 57 57 57 56 55 54 52 51 46 40 38 37 37
84 85 86 89 91 91 91 91 93 97 101 105 107 109 109 107 106 105 105 105 104 102 100 96 94 95 97 101 104 105 105 106 104 104 104 103 102 102 102 102 103 104 104 103 100 96 92 85 76 68 62 61 61 60 59 57 53 50 45 41 39 39 37
93 93 92 92 91 89 87 86 88 90 94 100 105 108 110 109 107 105 104 103 102 101 100 101 101 102 103 104 107 106 102 101 101 101 103 104 103 104 106 106 106 103 99 95 90 86 84 83 82 77 72 69 66 64 61 59 54 49 45 42 40 38 35
87 87 86 86 85 85 86 88 89 91 95 100 103 105 106 106 106 106 105 105 104 104 105 107 107 106 105 102 100 97 93 93 94 95 96 97 99 101 103 101 98 92 85 78 74 71 71 72 73 76 77 75 72 68 63 59 54 50 45 43 41 39 36
85 86 86 86 86 86 87 88 88 89 91 92 94 94 95 95 97 98 98 98 98 98 99 100 99 97 96 96 95 95 95 96 96 97 97 97 98 98 97 93 88 82 77 72 69 67 67 67 70 74 77 77 75 70 64 59 53 47 44 41 38 37 36
66 69 72 75 76 77 79 81 83 84 84 83 83 83 83 84 86 87 88 88 89 89 88 87 87 87 88 90 93 94 95 96 96 96 97 97 96 93 90 87 83 78 75 73 72 71 70 71 74 76 78 78 75 71 65 58 50 43 39 36 34 33 32
51 50 50 51 53 55 59 63 69 74 79 82 84 86 85 85 84 83 82 84 85 86 86 85 87 89 91 94 96 97 97 96 95 95 94 92 89 87 85 84 82 81 81 81 81 80 79 79 78 76 74 70 66 62 56 49 43 39 35 34 33 33 34
54 51 48 46 45 44 44 46 48 53 59 65 72 78 82 84 85 85 85 87 90 93 93 92 92 95 97 99 99 99 99 98 96 95 93 90 88 87 87 88 87 86 86 85 83 80 77 73 68 62 57 53 49 46 43 40 38 37 36 37 37 38 39
60 57 54 51 48 47 45 44 43 43 45 48 52 57 61 63 66 69 71 74 78 83 86 87 87 90 94 95 95 95 95 94 94 92 90 88 85 84 82 80 77 73 70 67 63 60 56 52 49 46 44 42 41 41 41 41 42 42 42 44 44 45 47
75 68 64 60 56 52 48 45 45 45 45 46 48 50 52 53 54 54 54 55 56 59 62 63 63 64 67 69 70 70 70 70 70 69 68 66 63 61 59 57 55 53 51 49 47 46 45 44 44 44 44 45 46 46 47 47 48 49 50 50 51 51 52
97 91 85 78 71 65 57 50 47 46 45 45 46 47 50 52 53 54 54 55 56 56 57 58 57 54 52 51 51 52 52 52 53 53 53 53 52 51 51 51 51 51 50 50 50 49 49 49 49 50 50 50 50 51 52 53 53 54 55 55 55 54 53
Wind_Speed
34 35 34 34 34 35 37 38 39 40 41 41 42 43 43 44 43 43 42 40 37 36 35 33 31 29 27 26 25 24 23 22 21 19 19 19 20 21 21 22 24 25 27 30 32 34 36 38 40 41 42 41 41 40 40 40 40 41 41 40 39 38 36
34 34 34 33 34 35 37 39 40 40 40 41 41 42 42 42 41 40 38 35 33 32 32 31 29 26 25 24 23 22 21 20 19 18 18 18 19 20 20 21 21 22 24 26 28 31 32 35 38 42 44 45 45 44 43 41 40 40 42 42 41 40 38
35 36 36 37 37 37 37 38 39 40 39 39 39 39 40 40 39 37 34 32 30 30 30 29 27 25 24 23 22 20 19 19 18 17 18 18 19 19 20 20 20 21 21 23 25 28 29 31 34 37 39 43 46 47 47 44 42 41 42 45 44 41 40
40 42 43 44 44 42 40 40 41 40 38 37 37 37 37 36 35 33 31 30 29 29 28 28 27 25 23 22 20 20 19 18 18 17 17 18 19 19 20 20 20 20 20 21 22 24 26 28 32 34 34 35 39 42 45 45 44 42 41 43 44 41 40
46 47 48 48 47 45 43 42 42 40 37 35 35 34 33 32 31 30 29 28 27 27 27 26 26 25 23 22 20 19 19 19 19 19 19 19 19 20 20 21 21 20 20 20 21 22 23 25 28 31 32 33 33 35 39 42 45 44 41 39 41 41 40
46 46 46 46 45 44 42 42 42 41 39 37 36 35 33 31 31 30 30 28 27 26 26 26 26 25 24 23 22 22 22 22 22 22 22 22 21 21 20 21 21 22 22 21 21 21 23 24 25 27 29 30 31 32 34 38 44 48 46 41 40 40 41
45 45 45 45 46 46 45 44 44 43 42 41 40 39 37 35 34 34 33 32 30 28 27 27 27 27 27 27 26 26 26 26 26 27 27 27 25 23 22 21 21 22 23 23 23 23 23 23 24 25 26 27 28 30 32 35 39 46 50 48 45 43 42
46 48 48 48 50 50 50 49 47 46 46 45 44 43 41 39 38 38 37 36 35 33 31 30 29 29 30 30 30 31 31 31 31 31 32 31 29 26 24 23 23 23 23 24 24 25 25 25 24 25 25 26 28 29 31 33 36 41 47 51 51 48 45
47 48 49 50 51 51 52 51 50 49 48 48 48 47 46 44 43 41 41 40 39 38 37 36 35 35 35 35 35 35 35 34 34 34 34 33 32 30 28 27 26 26 25 25 25 26 27 27 27 27 26 26 28 29 30 32 34 36 41 46 50 52 50
48 47 47 48 49 49 51 51 51 51 52 52 52 51 51 50 49 47 45 43 42 42 41 41 41 41 41 40 40 39 39 38 39 38 38 37 36 35 34 33 32 30 29 28 27 27 28 28 29 30 29 28 28 29 30 31 33 34 36 39 44 49 52
50 49 49 50 51 51 52 52 53 53 54 53 54 55 55 54 54 52 50 47 46 45 44 44 44 44 44 44 44 43 43 43 43 43 42 41 40 40 40 39 37 36 34 33 32 31 30 30 30 31 31 31 31 30 31 31 33 34 35 36 38 42 46
52 52 52 53 54 54 54 53 54 54 54 55 55 56 57 57 56 55 53 50 48 47 47 47 47 47 47 47 46 46 46 45 45 45 44 44 43 43 43 42 42 41 40 39 37 35 34 33 32 31 31 32 33 33 33 33 33 34 35 36 37 38 40
54 55 55 55 55 55 55 54 54 55 56 56 56 57 57 57 57 56 54 52 51 51 51 51 51 50 49 48 48 48 48 48 47 47 47 47 47 46 46 46 45 45 44 44 43 41 40 39 37 35 33 32 32 33 35 36 36 36 36 36 37 38 39
57 57 58 58 58 58 57 55 55 56 56 56 56 57 58 57 57 56 55 54 53 53 52 51 51 50 50 49 49 50 50 49 49 49 49 49 49 49 49 49 49 49 48 47 46 46 46 44 41 39 37 36 35 35 35 36 38 38 38 38 38 38 38
62 62 62 62 62 63 63 62 60 59 58 58 58 58 59 58 58 59 59 58 58 56 55 53 52 51 51 51 52 52 52 52 52 52 52 53 53 52 52 52 51 50 49 48 48 48 47 46 44 41 40 39 39 38 37 37 39 40 40 40 39 39 39
63 64 64 64 65 66 67 66 65 63 63 63 63 64 64 64 63 62 62 62 62 62 61 59 57 56 56 56 57 57 56 56 56 56 56 56 56 55 54 53 51 50 48 46 45 44 44 44 44 43 42 42 42 41 40 40 40 41 42 41 41 40 39
63 64 66 67 66 66 66 66 66 67 66 66 66 67 68 69 68 67 67 67 67 66 65 64 63 62 62 62 62 61 60 59 58 58 58 57 55 54 52 51 49 48 46 43 41 40 41 42 43 44 44 44 44 43 43 42 42 43 43 42 41 40 40
64 64 65 66 66 66 66 67 67 67 67 66 66 67 67 68 68 69 69 70 69 68 66 65 65 65 64 64 63 61 60 58 58 57 56 54 52 51 49 48 47 45 43 40 39 38 37 37 39 43 45 46 47 46 45 45 45 46 46 46 45 44 44
65 64 63 62 63 65 65 65 65 66 66 66 66 66 66 66 66 67 67 67 67 66 64 63 63 63 62 62 61 60 58 57 56 54 53 51 49 48 47 46 45 43 41 39 37 36 35 36 39 42 44 47 48 48 47 47 47 48 50 51 51 51 50
69 68 67 66 67 67 66 66 67 67 67 66 65 64 64 63 63 63 62 62 62 62 61 60 59 59 59 59 59 58 57 55 54 52 51 49 48 47 46 45 44 43 41 39 38 37 38 40 43 44 44 45 48 49 49 49 50 51 52 54 55 57 58
72 71 70 71 71 70 69 69 69 68 67 65 64 63 62 61 61 60 59 59 59 59 58 58 57 57 56 56 56 56 55 54 53 52 51 50 50 48 45 44 44 43 42 41 40 40 41 43 44 45 44 43 45 47 48 49 50 51 53 54 56 59 62
75 74 73 74 73 73 72 71 69 68 67 65 63 62 61 60 59 58 57 55 55 55 55 55 55 55 54 55 55 55 54 54 54 53 52 52 51 49 47 46 45 44 44 43 44 45 45 44 45 46 45 43 44 46 46 47 48 49 50 51 53 56 59
76 76 76 76 75 74 74 72 70 68 67 65 64 63 61 60 58 57 56 54 53 52 52 52 52 52 52 53 55 56 56 55 55 54 53 51 51 50 51 52 50 48 48 47 49 51 48 45 45 47 46 45 46 48 48 49 50 50 50 50 51 53 54
79 78 78 78 77 75 74 73 71 69 68 67 66 64 63 62 60 59 58 57 56 56 55 55 54 54 54 55 56 57 57 57 56 55 54 53 51 50 52 55 54 53 53 53 56 58 54 47 46 47 48 47 48 50 51 51 53 53 53 52 52 52 53
80 79 79 78 78 76 75 73 71 70 69 68 68 67 66 65 64 64 63 62 61 60 60 59 59 59 59 59 60 60 59 59 58 57 56 55 54 53 53 55 56 56 57 58 61 63 60 55 51 50 49 49 50 52 53 53 54 54 53 53 53 54 55
80 79 78 78 77 76 75 74 72 71 70 70 70 70 69 69 68 67 67 66 65 65 64 64 64 63 62 62 62 62 62 61 60 59 58 58 57 57 56 57 58 60 63 64 64 65 63 61 58 55 53 52 52 53 53 53 54 54 54 54 54 55 57
80 78 77 77 76 75 75 74 73 71 71 70 70 71 71 71 71 70 70 69 69 69 69 68 68 67 66 65 65 64 64 63 62 61 61 61 61 61 61 61 63 65 67 67 67 66 66 65 62 59 57 56 55 55 55 56 56 56 56 56 56 56 58
80 79 77 77 76 76 75 74 73 72 72 71 71 71 71 71 72 72 72 71 72 72 72 71 71 70 69 69 68 67 66 65 65 64 64 65 65 65 66 67 68 68 69 68 68 68 68 67 66 63 61 59 58 58 58 59 59 58 58 58 58 59 60
79 79 78 77 77 76 75 74 74 73 72 72 72 72 72 72 72 72 72 72 73 73 73 73 72 71 71 71 70 70 69 68 68 68 68 68 68 69 69 70 70 70 70 70 70 69 69 68 67 66 64 62 61 61 60 61 61 61 61 60 61 61 61
76 77 77 76 76 75 75 74 74 73 73 73 73 73 73 73 73 73 73 74 74 74 75 74 74 73 73 72 72 72 71 71 70 70 70 71 71 71 71 71 72 72 72 72 71 70 69 69 67 66 65 64 63 62 62 62 62 62 63 62 63 63 63
71 72 72 72 73 73 73 73 73 73 73 73 73 74 74 74 73 74 74 75 76 76 76 76 76 75 75 74 74 74 73 73 72 72 73 73 73 73 73 73 73 73 73 72 71 70 69 68 66 66 65 64 64 63 63 63 63 63 63 63 63 63 64
68 68 68 68 68 68 68 68 69 69 70 70 71 71 71 71 72 73 73 74 75 76 76 76 76 76 75 75 75 74 74 74 74 74 74 74 74 74 74 73 73 72 71 70 69 68 67 66 65 65 65 64 64 64 64 64 64 63 63 63 63 64 64
69 69 68 67 66 65 65 64 64 65 65 66 67 67 67 68 68 69 70 71 72 73 73 73 73 73 72 73 73 73 73 73 73 73 73 73 73 72 72 71 70 69 68 67 67 67 66 65 65 65 66 66 65 65 65 65 65 65 65 65 65 66 67
72 72 71 69 68 67 66 64 63 63 63 63 63 64 65 65 66 66 67 67 68 69 70 70 69 69 69 69 70 70 70 71 71 71 71 70 70 69 68 68 67 66 66 66 66 66 66 67 67 67 67 67 66 66 66 66 66 67 67 68 68 69 70
76 75 74 73 72 70 69 67 66 64 63 63 63 63 63 64 65 65 65 66 66 67 68 68 68 67 67 67 68 67 68 68 68 68 68 68 68 67 66 66 66 66 66 66 66 66 67 67 67 67 67 67 67 67 67 68 69 69 70 71 72 73 74
80 79 79 78 76 75 73 70 69 67 66 65 65 65 65 65 66 66 66 66 66 66 67 68 68 67 67 67 66 66 66 66 66 67 67 67 67 66 65 66 66 66 66 66 66 67 67 67 68 68 68 68 68 69 70 70 71 72 73 74 75 76 77
83 83 83 83 81 80 78 75 73 71 69 68 67 67 67 67 68 68 68 68 68 68 68 69 69 69 68 67 66 66 66 66 66 67 67 67 67 67 66 67 67 68 68 68 68 68 69 69 69 70 70 71 71 71 72 73 74 75 76 77 77 78 79
Wind_Direction
289 286 283 282 282 281 279 277 277 278 279 280 281 282 283 284 285 286 287 288 288 287 286 286 285 286 286 285 285 286 287 287 284 280 276 274 275 276 276 274 270 265 260 254 250 249 248 245 243 242 243 244 244 244 245 248 251 253 253 252 250 249 248
285 286 286 286 284 282 280 279 279 280 281 282 284 285 286 286 286 286 285 285 284 283 282 281 280 281 280 279 279 281 282 284 284 282 278 275 274 275 277 278 276 270 264 257 251 249 249 248 246 245 244 244 244 244 245 246 247 249 250 250 248 248 247
276 279 281 281 282 284 286 286 286 286 285 285 285 284 284 284 283 283 283 283 282 280 279 278 277 277 275 274 274 276 278 280 282 283 281 279 275 274 274 276 278 276 271 263 255 251 248 246 245 245 245 245 244 244 245 245 243 243 246 248 249 248 246
271 273 275 276 278 282 286 288 290 290 288 286 286 284 283 282 282 283 284 284 282 280 279 278 277 277 274 271 270 273 276 279 281 283 284 284 281 278 275 274 275 277 276 272 266 258 251 244 242 244 246 247 245 244 243 242 240 238 241 246 249 246 244
271 272 274 275 277 280 283 285 287 288 287 286 286 286 285 284 283 284 285 286 284 282 280 279 280 280 276 272 270 273 276 280 283 284 285 285 285 283 280 277 275 275 276 276 274 269 262 253 246 246 248 249 248 245 242 239 236 233 234 240 245 245 242
274 275 276 277 277 278 279 281 283 284 284 283 283 283 283 282 283 284 284 285 286 284 282 281 283 283 280 275 273 275 278 282 285 287 288 286 284 283 282 280 278 275 273 272 272 271 269 264 258 253 251 251 249 247 244 239 234 232 231 232 239 243 242
277 277 278 278 279 278 278 279 281 282 281 281 281 282 281 281 281 282 282 283 284 284 282 281 281 283 281 278 276 276 278 281 284 287 290 289 285 282 282 282 281 279 276 273 270 268 267 266 264 261 257 254 252 249 247 243 238 235 233 232 235 240 243
278 279 279 280 281 282 281 281 281 281 281 281 281 282 281 281 281 281 281 281 280 280 279 278 277 278 279 279 277 277 277 279 282 286 289 288 285 283 283 283 283 281 280 277 274 270 267 265 263 261 259 257 256 254 251 249 245 241 238 236 235 237 241
275 277 279 280 281 282 283 282 282 281 281 281 281 281 280 280 280 280 280 280 279 278 276 275 275 275 277 278 279 279 279 279 282 286 288 287 285 284 285 287 286 284 282 280 278 276 272 268 265 261 258 256 256 256 256 255 252 249 245 242 239 238 239
270 273 275 277 279 280 281 282 282 282 281 281 281 281 281 280 279 278 278 278 278 278 277 276 275 275 276 277 279 280 280 280 282 284 286 286 284 284 285 288 288 287 286 284 281 279 276 272 268 264 261 258 256 255 255 256 256 255 252 249 246 243 242
267 269 272 274 276 278 279 280 281 281 282 282 281 282 282 281 280 278 278 278 278 277 277 276 275 274 275 276 278 279 280 280 281 283 284 284 284 283 284 286 287 287 287 286 284 282 279 276 271 267 263 261 259 257 256 255 255 255 255 254 252 249 246
267 269 271 272 274 275 276 277 277 278 279 280 281 282 283 282 280 279 279 278 277 276 276 275 275 275 276 277 277 278 279 280 280 281 282 283 284 284 284 285 285 285 285 285 283 282 281 278 274 270 266 263 261 259 258 257 256 256 255 255 255 254 253
267 268 269 270 271 272 273 274 275 276 277 278 280 281 281 281 281 280 279 277 277 277 277 278 278 278 277 276 276 276 277 277 278 279 280 281 282 282 283 283 283 282 282 281 281 280 280 279 275 269 267 266 265 262 260 258 257 256 256 256 255 255 255
266 266 266 266 268 269 270 271 272 274 275 276 277 278 278 279 279 278 277 275 275 275 276 277 277 277 276 275 275 275 276 276 277 278 279 280 280 281 282 282 282 282 282 281 280 279 278 277 273 268 265 266 266 266 264 261 258 256 256 256 256 255 255
265 265 265 265 267 268 269 270 271 271 271 272 273 274 275 276 276 275 274 274 274 273 273 273 273 274 274 274 274 274 274 275 276 278 278 279 280 281 283 283 283 283 282 281 280 278 276 273 268 264 263 264 265 266 265 263 260 258 255 255 255 256 256
266 266 267 268 269 269 269 270 271 271 272 272 272 272 272 273 274 273 273 273 274 273 273 272 272 273 273 273 273 273 274 275 276 277 278 279 280 282 282 283 282 282 281 279 277 275 273 269 263 260 260 261 263 264 264 263 261 259 256 254 254 254 255
268 269 270 270 271 271 270 270 271 273 274 274 274 273 272 272 273 272 272 272 273 273 273 273 273 274 274 274 275 275 276 276 277 277 278 278 280 281 281 281 281 280 278 275 274 274 272 266 261 258 257 258 260 261 262 262 261 259 257 254 252 252 255
270 270 271 271 271 271 271 271 272 273 274 275 274 273 272 272 272 271 271 272 272 273 273 273 274 274 275 276 277 277 277 277 277 277 278 279 280 280 279 279 278 276 274 273 274 275 272 267 263 261 259 258 258 259 259 259 258 257 255 252 250 251 255
268 268 268 269 270 270 271 271 272 273 274 275 275 274 274 273 272 272 272 272 273 273 273 273 274 274 275 276 276 276 276 276 276 277 278 279 279 279 278 277 275 273 273 273 275 275 272 270 270 268 264 261 259 258 258 257 257 256 254 252 250 251 255
267 266 266 267 268 270 271 271 273 273 274 274 274 274 274 273 273 273 273 273 273 274 274 274 274 274 275 275 276 276 276 277 277 278 278 278 277 277 276 276 275 273 274 274 276 277 276 273 272 270 267 264 261 258 257 257 257 257 256 254 253 253 256
267 267 266 267 268 270 270 271 272 273 273 273 272 272 272 272 272 272 272 273 273 273 273 273 273 274 274 274 275 277 278 279 279 280 279 279 277 276 276 275 273 273 274 276 278 279 278 276 272 268 266 265 263 259 258 258 258 258 258 258 257 257 258
267 267 267 268 269 270 270 271 271 272 272 271 271 270 270 270 270 271 271 271 272 272 273 273 274 274 275 276 276 277 279 280 280 281 281 282 282 282 280 277 275 275 277 279 280 280 278 275 273 269 266 264 262 259 259 259 259 259 260 261 260 260 260
266 267 267 268 269 269 270 270 270 270 270 270 269 268 268 267 267 268 268 268 268 269 270 271 271 272 273 274 276 277 278 279 279 280 281 281 282 283 282 281 281 282 283 284 284 282 278 275 274 272 268 265 263 262 263 264 264 265 265 265 263 262 261
265 266 267 268 268 269 269 269 269 269 268 268 267 266 265 265 265 265 265 265 266 266 267 267 267 268 269 270 272 274 275 277 278 278 279 279 279 278 277 279 282 284 284 285 286 284 282 279 276 273 270 267 266 265 266 267 268 269 270 270 268 266 264
266 266 267 268 268 268 268 268 268 267 267 266 266 265 265 264 263 263 263 263 263 263 263 264 264 266 267 269 270 271 273 274 275 276 277 277 277 275 274 275 277 279 280 281 282 283 283 282 278 274 270 267 266 266 267 267 268 269 271 272 272 271 269
266 266 266 266 267 267 267 267 267 266 266 265 265 265 265 264 264 264 263 263 263 262 262 262 262 263 265 267 269 270 271 272 273 273 274 275 274 274 272 271 271 274 277 279 279 280 281 281 279 277 273 270 268 268 269 270 271 272 272 273 273 273 272
268 267 266 266 266 265 265 265 265 265 264 264 264 264 265 265 264 264 264 264 264 264 263 264 264 264 265 266 268 269 270 270 271 271 272 272 272 272 271 270 270 271 274 277 278 279 279 279 279 277 275 274 272 272 272 273 273 274 274 274 274 273 272
267 267 267 266 265 265 264 264 264 263 263 263 263 263 264 264 265 265 265 265 265 265 265 265 266 266 266 266 267 267 267 268 268 269 269 270 270 270 271 271 272 273 274 275 276 277 277 277 277 277 276 274 273 273 274 274 274 274 274 274 274 273 272
266 266 265 265 264 264 264 264 263 263 263 263 263 263 263 263 264 264 265 265 265 265 265 265 266 266 266 266 266 266 266 267 268 268 268 269 270 270 271 272 273 274 274 274 275 275 274 274 274 274 274 274 273 273 273 273 274 274 274 274 274 273 273
263 264 264 264 264 264 264 263 263 263 262 262 262 262 262 262 262 263 263 263 264 264 264 265 265 265 266 266 266 267 267 268 269 269 270 271 271 272 272 273 274 274 275 275 275 274 273 273 272 272 272 272 272 272 272 272 272 272 272 273 273 273 274
261 261 262 262 262 262 262 261 261 261 260 260 260 260 260 260 261 261 262 262 263 263 264 264 265 266 266 267 267 268 269 269 270 270 271 272 272 273 274 274 274 275 275 275 275 275 274 273 273 272 272 272 272 272 272 272 272 271 271 271 271 271 272
259 259 259 259 259 259 259 259 259 259 259 259 260 260 260 260 260 261 261 262 262 263 264 265 266 267 267 268 268 269 269 269 270 270 271 271 272 273 273 274 274 274 275 275 274 274 274 274 274 274 273 274 274 274 274 274 273 273 273 272 272 272 272
262 261 260 260 259 259 258 258 257 257 258 259 259 260 260 260 261 261 261 262 263 263 264 265 266 266 267 267 268 268 268 269 269 270 270 271 271 272 272 273 273 273 274 274 274 274 274 275 275 276 276 276 276 276 276 276 276 276 276 276 276 276 276
265 264 264 263 262 261 260 258 257 257 257 257 258 259 260 260 261 261 261 262 262 263 264 265 265 265 265 265 265 266 267 267 268 268 269 269 270 271 271 272 272 273 273 273 274 275 275 276 276 277 277 278 278 278 278 279 279 279 279 279 279 279 279
266 266 266 265 264 263 262 260 259 258 257 257 257 258 259 260 260 261 261 261 262 262 263 263 263 263 263 263 263 264 265 265 266 267 267 268 269 269 270 271 272 272 273 273 274 275 275 276 276 277 278 278 279 279 280 280 280 280 280 280 280 280 280
268 268 268 267 267 266 265 263 262 261 259 258 258 258 258 259 259 260 260 261 261 262 262 263 263 262 262 262 262 263 263 264 265 266 266 267 268 269 269 270 271 272 272 273 274 274 275 275 276 277 277 278 278 279 279 279 280 280 280 280 281 281 281
267 268 268 268 268 268 267 266 265 264 262 260 259 258 258 258 259 260 260 261 262 262 262 263 264 264 264 263 263 263 264 265 265 266 267 267 268 269 270 271 272 273 273 274 274 275 276 276 277 278 278 278 278 279 279 280 280 280 281 281 282 282 282